Time,TemperatureF,DewpointF,PressureIn,WindDirection,WindDirectionDegrees,WindSpeedMPH,WindSpeedGustMPH,Humidity,HourlyPrecipIn,Conditions,Clouds,dailyrainin,SoftwareType,DateUTC
2013-04-22 00:00:00,40.6,28.6,30.36,ESE,112,2.5,2.5,62,0.00,,---,0.00,VWS V14.00,2013-04-22 04:00:00,
2013-04-22 00:01:00,40.6,28.6,30.36,South,180,0.0,2.5,62,0.00,,---,0.00,VWS V14.00,2013-04-22 04:01:00,
2013-04-22 00:02:00,40.6,28.6,30.36,South,180,5.8,5.8,62,0.00,,---,0.00,VWS V14.00,2013-04-22 04:02:00,
2013-04-22 00:06:00,40.5,28.5,30.36,South,180,4.0,4.0,62,0.00,,---,0.00,VWS V14.00,2013-04-22 04:06:00,
2013-04-22 00:09:00,40.5,28.5,30.36,SSW,202,2.7,2.7,62,0.00,,---,0.00,VWS V14.00,2013-04-22 04:09:00,
2013-04-22 00:11:00,40.5,28.5,30.36,South,180,1.3,2.5,62,0.00,,---,0.00,VWS V14.00,2013-04-22 04:11:00,
2013-04-22 00:12:00,40.5,28.5,30.36,SSE,158,1.6,2.9,62,0.00,,---,0.00,VWS V14.00,2013-04-22 04:12:00,
2013-04-22 00:13:00,40.5,28.5,30.36,SSE,158,1.3,1.6,62,0.00,,---,0.00,VWS V14.00,2013-04-22 04:13:00,
2013-04-22 00:14:00,40.3,28.3,30.36,South,180,1.1,2.5,62,0.00,,---,0.00,VWS V14.00,2013-04-22 04:14:00,
2013-04-22 00:16:00,40.3,28.3,30.36,WSW,248,1.3,1.3,62,0.00,,---,0.00,VWS V14.00,2013-04-22 04:16:00,
2013-04-22 00:17:00,40.3,28.3,30.36,SE,135,0.0,2.2,62,0.00,,---,0.00,VWS V14.00,2013-04-22 04:17:00,
2013-04-22 00:19:00,40.3,28.3,30.36,SSE,158,1.3,2.2,62,0.00,,---,0.00,VWS V14.00,2013-04-22 04:19:00,
2013-04-22 00:20:00,40.1,28.1,30.36,SE,135,2.0,2.0,62,0.00,,---,0.00,VWS V14.00,2013-04-22 04:20:00,
2013-04-22 00:22:00,40.1,28.1,30.36,SSW,202,2.2,2.2,62,0.00,,---,0.00,VWS V14.00,2013-04-22 04:22:00,
2013-04-22 00:23:00,40.1,28.1,30.36,SSW,202,2.2,2.2,62,0.00,,---,0.00,VWS V14.00,2013-04-22 04:23:00,
2013-04-22 00:25:00,39.9,28.0,30.36,West,270,0.0,1.1,62,0.00,,---,0.00,VWS V14.00,2013-04-22 04:25:00,
2013-04-22 00:26:00,39.9,28.0,30.36,WSW,248,2.7,3.1,62,0.00,,---,0.00,VWS V14.00,2013-04-22 04:26:00,
2013-04-22 00:28:00,39.9,28.4,30.36,SSE,158,1.3,1.3,63,0.00,,---,0.00,VWS V14.00,2013-04-22 04:28:00,
2013-04-22 00:29:00,39.9,28.0,30.36,SSE,158,2.0,2.0,62,0.00,,---,0.00,VWS V14.00,2013-04-22 04:29:00,
2013-04-22 00:30:00,39.7,27.8,30.36,SSW,202,1.6,2.0,62,0.00,,---,0.00,VWS V14.00,2013-04-22 04:30:00,
2013-04-22 00:32:00,39.7,27.8,30.36,SE,135,2.0,2.0,62,0.00,,---,0.00,VWS V14.00,2013-04-22 04:32:00,
2013-04-22 00:33:00,39.7,27.8,30.36,SE,135,2.0,2.0,62,0.00,,---,0.00,VWS V14.00,2013-04-22 04:33:00,
2013-04-22 00:34:00,39.7,27.8,30.36,SSE,158,1.6,1.6,62,0.00,,---,0.00,VWS V14.00,2013-04-22 04:34:00,
2013-04-22 00:35:00,39.7,27.8,30.36,WSW,248,2.9,2.9,62,0.00,,---,0.00,VWS V14.00,2013-04-22 04:35:00,
2013-04-22 00:37:00,39.7,27.8,30.36,South,180,2.5,3.4,62,0.00,,---,0.00,VWS V14.00,2013-04-22 04:37:00,
2013-04-22 00:39:00,39.6,27.6,30.36,NE,45,0.9,0.9,62,0.00,,---,0.00,VWS V14.00,2013-04-22 04:39:00,
2013-04-22 00:40:00,39.6,27.6,30.36,SE,135,1.1,1.1,62,0.00,,---,0.00,VWS V14.00,2013-04-22 04:40:00,
2013-04-22 00:41:00,39.6,27.6,30.36,ESE,112,0.9,1.1,62,0.00,,---,0.00,VWS V14.00,2013-04-22 04:41:00,
2013-04-22 00:42:00,39.4,27.9,30.36,South,180,1.6,1.6,63,0.00,,---,0.00,VWS V14.00,2013-04-22 04:42:00,
2013-04-22 00:44:00,39.4,27.9,30.36,NE,45,1.6,3.8,63,0.00,,---,0.00,VWS V14.00,2013-04-22 04:44:00,
2013-04-22 00:45:00,39.4,27.9,30.36,East,90,1.3,2.0,63,0.00,,---,0.00,VWS V14.00,2013-04-22 04:45:00,
2013-04-22 00:46:00,39.4,27.9,30.36,SSE,158,2.5,2.7,63,0.00,,---,0.00,VWS V14.00,2013-04-22 04:46:00,
2013-04-22 00:48:00,39.4,27.9,30.36,SSE,158,2.2,4.7,63,0.00,,---,0.00,VWS V14.00,2013-04-22 04:48:00,
2013-04-22 00:49:00,39.4,27.9,30.36,South,180,0.0,0.0,63,0.00,,---,0.00,VWS V14.00,2013-04-22 04:49:00,
2013-04-22 00:50:00,39.4,27.9,30.36,SE,135,1.6,2.0,63,0.00,,---,0.00,VWS V14.00,2013-04-22 04:50:00,
2013-04-22 00:51:00,39.2,27.7,30.36,South,180,1.6,2.0,63,0.00,,---,0.00,VWS V14.00,2013-04-22 04:51:00,
2013-04-22 00:52:00,39.2,27.7,30.36,NNE,22,4.7,4.7,63,0.00,,---,0.00,VWS V14.00,2013-04-22 04:52:00,
2013-04-22 00:53:00,39.2,27.7,30.36,SSW,202,2.5,2.7,63,0.00,,---,0.00,VWS V14.00,2013-04-22 04:53:00,
2013-04-22 00:55:00,39.2,27.7,30.36,SSW,202,2.5,3.4,63,0.00,,---,0.00,VWS V14.00,2013-04-22 04:55:00,
2013-04-22 00:56:00,39.2,27.7,30.36,SSE,158,2.0,2.0,63,0.00,,---,0.00,VWS V14.00,2013-04-22 04:56:00,
2013-04-22 00:57:00,39.2,27.7,30.36,SSE,158,2.9,2.9,63,0.00,,---,0.00,VWS V14.00,2013-04-22 04:57:00,
2013-04-22 00:58:00,39.0,27.5,30.36,West,270,2.5,3.1,63,0.00,,---,0.00,VWS V14.00,2013-04-22 04:58:00,
2013-04-22 00:59:00,39.0,27.5,30.36,WNW,292,1.6,2.7,63,0.00,,---,0.00,VWS V14.00,2013-04-22 04:59:00,
2013-04-22 01:00:00,39.0,27.5,30.36,WSW,248,2.9,2.9,63,0.00,,---,0.00,VWS V14.00,2013-04-22 05:00:00,
2013-04-22 01:02:00,39.0,27.5,30.36,SSE,158,3.6,4.3,63,0.00,,---,0.00,VWS V14.00,2013-04-22 05:02:00,
2013-04-22 01:03:00,38.8,27.3,30.36,SSE,158,2.0,7.8,63,0.00,,---,0.00,VWS V14.00,2013-04-22 05:03:00,
2013-04-22 01:04:00,38.8,27.3,30.36,South,180,3.6,4.0,63,0.00,,---,0.00,VWS V14.00,2013-04-22 05:04:00,
2013-04-22 01:05:00,38.8,27.3,30.36,SSE,158,3.1,3.1,63,0.00,,---,0.00,VWS V14.00,2013-04-22 05:05:00,
2013-04-22 01:07:00,38.8,27.3,30.36,SSE,158,2.2,4.9,63,0.00,,---,0.00,VWS V14.00,2013-04-22 05:07:00,
2013-04-22 01:08:00,38.8,27.3,30.36,SSE,158,2.2,4.9,63,0.00,,---,0.00,VWS V14.00,2013-04-22 05:08:00,
2013-04-22 01:10:00,38.8,27.3,30.36,SSE,158,1.6,2.7,63,0.00,,---,0.00,VWS V14.00,2013-04-22 05:10:00,
2013-04-22 01:11:00,38.8,27.3,30.36,SSW,202,2.5,5.4,63,0.00,,---,0.00,VWS V14.00,2013-04-22 05:11:00,
2013-04-22 01:13:00,38.7,27.2,30.36,SSW,202,1.3,2.5,63,0.00,,---,0.00,VWS V14.00,2013-04-22 05:13:00,
2013-04-22 01:15:00,38.7,27.2,30.36,SSW,202,2.9,2.9,63,0.00,,---,0.00,VWS V14.00,2013-04-22 05:15:00,
2013-04-22 01:16:00,38.7,27.2,30.36,SSE,158,1.6,2.9,63,0.00,,---,0.00,VWS V14.00,2013-04-22 05:16:00,
2013-04-22 01:19:00,38.7,27.2,30.36,SE,135,1.3,3.1,63,0.00,,---,0.00,VWS V14.00,2013-04-22 05:19:00,
2013-04-22 01:21:00,38.5,27.0,30.36,South,180,2.5,2.7,63,0.00,,---,0.00,VWS V14.00,2013-04-22 05:21:00,
2013-04-22 01:25:00,38.5,27.0,30.36,SSE,158,2.0,2.7,63,0.00,,---,0.00,VWS V14.00,2013-04-22 05:25:00,
2013-04-22 01:26:00,38.5,27.0,30.36,SSE,158,3.6,4.9,63,0.00,,---,0.00,VWS V14.00,2013-04-22 05:26:00,
2013-04-22 01:27:00,38.5,27.0,30.36,SW,225,1.1,1.1,63,0.00,,---,0.00,VWS V14.00,2013-04-22 05:27:00,
2013-04-22 01:28:00,38.3,26.8,30.36,SSE,158,2.5,3.1,63,0.00,,---,0.00,VWS V14.00,2013-04-22 05:28:00,
2013-04-22 01:31:00,38.3,26.8,30.36,West,270,0.0,1.3,63,0.00,,---,0.00,VWS V14.00,2013-04-22 05:31:00,
2013-04-22 01:32:00,38.3,26.8,30.36,SSE,158,2.7,4.0,63,0.00,,---,0.00,VWS V14.00,2013-04-22 05:32:00,
2013-04-22 01:33:00,38.1,26.6,30.33,West,270,1.6,1.6,63,0.00,,---,0.00,VWS V14.00,2013-04-22 05:33:00,
2013-04-22 01:36:00,38.1,26.6,30.33,South,180,1.3,1.6,63,0.00,,---,0.00,VWS V14.00,2013-04-22 05:36:00,
2013-04-22 01:37:00,38.1,26.6,30.33,South,180,0.0,1.6,63,0.00,,---,0.00,VWS V14.00,2013-04-22 05:37:00,
2013-04-22 01:38:00,38.1,26.6,30.33,South,180,1.3,1.3,63,0.00,,---,0.00,VWS V14.00,2013-04-22 05:38:00,
2013-04-22 01:39:00,38.1,26.6,30.33,South,180,1.3,1.3,63,0.00,,---,0.00,VWS V14.00,2013-04-22 05:39:00,
2013-04-22 01:42:00,37.9,26.5,30.33,South,180,0.9,2.5,63,0.00,,---,0.00,VWS V14.00,2013-04-22 05:42:00,
2013-04-22 01:44:00,37.9,26.5,30.33,ESE,112,2.0,3.4,63,0.00,,---,0.00,VWS V14.00,2013-04-22 05:44:00,
2013-04-22 01:45:00,37.9,26.5,30.33,ESE,112,2.0,3.4,63,0.00,,---,0.00,VWS V14.00,2013-04-22 05:45:00,
2013-04-22 01:47:00,37.9,26.5,30.33,South,180,1.1,1.6,63,0.00,,---,0.00,VWS V14.00,2013-04-22 05:47:00,
2013-04-22 01:50:00,37.8,26.3,30.33,SW,225,1.1,1.3,63,0.00,,---,0.00,VWS V14.00,2013-04-22 05:50:00,
2013-04-22 01:52:00,37.8,26.3,30.33,SSW,202,1.6,2.7,63,0.00,,---,0.00,VWS V14.00,2013-04-22 05:52:00,
2013-04-22 01:53:00,37.8,26.3,30.33,SE,135,2.7,2.7,63,0.00,,---,0.00,VWS V14.00,2013-04-22 05:53:00,
2013-04-22 01:55:00,37.6,26.1,30.33,WSW,248,1.1,1.1,63,0.00,,---,0.00,VWS V14.00,2013-04-22 05:55:00,
2013-04-22 01:56:00,37.6,26.1,30.33,WSW,248,1.1,1.1,63,0.00,,---,0.00,VWS V14.00,2013-04-22 05:56:00,
2013-04-22 01:57:00,37.6,26.1,30.33,SSW,202,1.6,2.5,63,0.00,,---,0.00,VWS V14.00,2013-04-22 05:57:00,
2013-04-22 01:59:00,37.6,26.1,30.33,SSW,202,1.6,1.6,63,0.00,,---,0.00,VWS V14.00,2013-04-22 05:59:00,
2013-04-22 02:01:00,37.6,26.1,30.33,South,180,2.9,2.9,63,0.00,,---,0.00,VWS V14.00,2013-04-22 06:01:00,
2013-04-22 02:02:00,37.6,26.1,30.33,SSW,202,0.9,3.6,63,0.00,,---,0.00,VWS V14.00,2013-04-22 06:02:00,
2013-04-22 02:04:00,37.6,26.5,30.36,ESE,112,1.3,2.7,64,0.00,,---,0.00,VWS V14.00,2013-04-22 06:04:00,
2013-04-22 02:06:00,37.6,26.5,30.36,NNW,338,1.3,3.8,64,0.00,,---,0.00,VWS V14.00,2013-04-22 06:06:00,
2013-04-22 02:07:00,37.4,26.4,30.36,SSW,202,1.6,2.2,64,0.00,,---,0.00,VWS V14.00,2013-04-22 06:07:00,
2013-04-22 02:09:00,37.4,26.4,30.36,South,180,2.9,2.9,64,0.00,,---,0.00,VWS V14.00,2013-04-22 06:09:00,
2013-04-22 02:10:00,37.4,26.4,30.36,South,180,1.3,2.9,64,0.00,,---,0.00,VWS V14.00,2013-04-22 06:10:00,
2013-04-22 02:11:00,37.4,26.4,30.36,NE,45,2.0,2.2,64,0.00,,---,0.00,VWS V14.00,2013-04-22 06:11:00,
2013-04-22 02:12:00,37.4,26.4,30.36,SSW,202,4.3,4.3,64,0.00,,---,0.00,VWS V14.00,2013-04-22 06:12:00,
2013-04-22 02:15:00,37.4,26.4,30.36,South,180,2.7,4.3,64,0.00,,---,0.00,VWS V14.00,2013-04-22 06:15:00,
2013-04-22 02:16:00,37.4,26.4,30.36,WSW,248,0.0,0.0,64,0.00,,---,0.00,VWS V14.00,2013-04-22 06:16:00,
2013-04-22 02:17:00,37.2,26.2,30.36,South,180,3.1,4.9,64,0.00,,---,0.00,VWS V14.00,2013-04-22 06:17:00,
2013-04-22 02:18:00,37.2,26.2,30.33,South,180,2.9,4.9,64,0.00,,---,0.00,VWS V14.00,2013-04-22 06:18:00,
2013-04-22 02:20:00,37.2,26.2,30.33,South,180,2.5,3.1,64,0.00,,---,0.00,VWS V14.00,2013-04-22 06:20:00,
2013-04-22 02:21:00,37.2,26.2,30.33,South,180,2.5,2.5,64,0.00,,---,0.00,VWS V14.00,2013-04-22 06:21:00,
2013-04-22 02:22:00,37.2,26.2,30.33,South,180,3.1,4.9,64,0.00,,---,0.00,VWS V14.00,2013-04-22 06:22:00,
2013-04-22 02:23:00,37.0,26.0,30.33,SE,135,1.1,3.6,64,0.00,,---,0.00,VWS V14.00,2013-04-22 06:23:00,
2013-04-22 02:25:00,37.0,26.0,30.33,South,180,0.9,2.0,64,0.00,,---,0.00,VWS V14.00,2013-04-22 06:25:00,
2013-04-22 02:26:00,37.0,26.4,30.33,South,180,0.0,0.9,65,0.00,,---,0.00,VWS V14.00,2013-04-22 06:26:00,
2013-04-22 02:27:00,37.0,26.4,30.33,SW,225,2.5,2.5,65,0.00,,---,0.00,VWS V14.00,2013-04-22 06:27:00,
2013-04-22 02:28:00,37.0,26.4,30.33,ESE,112,1.1,2.5,65,0.00,,---,0.00,VWS V14.00,2013-04-22 06:28:00,
2013-04-22 02:30:00,37.0,26.4,30.33,SSE,158,1.1,3.4,65,0.00,,---,0.00,VWS V14.00,2013-04-22 06:30:00,
2013-04-22 02:32:00,37.0,26.4,30.33,SSW,202,1.6,1.6,65,0.00,,---,0.00,VWS V14.00,2013-04-22 06:32:00,
2013-04-22 02:33:00,37.0,26.4,30.33,SSE,158,2.2,2.2,65,0.00,,---,0.00,VWS V14.00,2013-04-22 06:33:00,
2013-04-22 02:36:00,37.0,26.4,30.33,East,90,0.9,2.0,65,0.00,,---,0.00,VWS V14.00,2013-04-22 06:36:00,
2013-04-22 02:37:00,37.0,26.4,30.33,SSW,202,0.0,0.9,65,0.00,,---,0.00,VWS V14.00,2013-04-22 06:37:00,
2013-04-22 02:38:00,36.9,26.2,30.33,SSW,202,0.0,2.0,65,0.00,,---,0.00,VWS V14.00,2013-04-22 06:38:00,
2013-04-22 02:39:00,36.9,26.2,30.33,SE,135,2.2,2.2,65,0.00,,---,0.00,VWS V14.00,2013-04-22 06:39:00,
2013-04-22 02:42:00,36.9,26.2,30.33,SSE,158,1.3,2.2,65,0.00,,---,0.00,VWS V14.00,2013-04-22 06:42:00,
2013-04-22 02:43:00,36.9,26.2,30.33,South,180,0.0,1.3,65,0.00,,---,0.00,VWS V14.00,2013-04-22 06:43:00,
2013-04-22 02:44:00,36.9,26.2,30.33,South,180,1.1,2.9,65,0.00,,---,0.00,VWS V14.00,2013-04-22 06:44:00,
2013-04-22 02:47:00,36.9,26.2,30.33,ENE,68,1.1,2.0,65,0.00,,---,0.00,VWS V14.00,2013-04-22 06:47:00,
2013-04-22 02:48:00,36.9,26.2,30.33,SE,135,2.0,2.0,65,0.00,,---,0.00,VWS V14.00,2013-04-22 06:48:00,
2013-04-22 02:49:00,36.9,26.2,30.33,SSW,202,0.9,1.6,65,0.00,,---,0.00,VWS V14.00,2013-04-22 06:49:00,
2013-04-22 02:50:00,36.7,26.0,30.33,SSW,202,2.5,2.5,65,0.00,,---,0.00,VWS V14.00,2013-04-22 06:50:00,
2013-04-22 02:52:00,36.7,26.0,30.33,SSW,202,0.0,1.3,65,0.00,,---,0.00,VWS V14.00,2013-04-22 06:52:00,
2013-04-22 02:54:00,36.7,26.0,30.33,SSE,158,2.0,2.7,65,0.00,,---,0.00,VWS V14.00,2013-04-22 06:54:00,
2013-04-22 02:55:00,36.7,26.0,30.33,SSW,202,1.1,1.6,65,0.00,,---,0.00,VWS V14.00,2013-04-22 06:55:00,
2013-04-22 02:57:00,36.7,26.0,30.33,SW,225,1.3,2.2,65,0.00,,---,0.00,VWS V14.00,2013-04-22 06:57:00,
2013-04-22 02:58:00,36.7,26.0,30.33,ENE,68,1.3,2.2,65,0.00,,---,0.00,VWS V14.00,2013-04-22 06:58:00,
2013-04-22 02:59:00,36.7,26.0,30.33,SSE,158,2.0,2.0,65,0.00,,---,0.00,VWS V14.00,2013-04-22 06:59:00,
2013-04-22 03:00:00,36.7,26.0,30.33,SE,135,0.0,2.0,65,0.00,,---,0.00,VWS V14.00,2013-04-22 07:00:00,
2013-04-22 03:01:00,36.7,26.0,30.33,SE,135,0.0,2.0,65,0.00,,---,0.00,VWS V14.00,2013-04-22 07:01:00,
2013-04-22 03:02:00,36.7,26.0,30.33,SSE,158,0.9,2.7,65,0.00,,---,0.00,VWS V14.00,2013-04-22 07:02:00,
2013-04-22 03:03:00,36.7,26.4,30.33,NE,45,1.3,2.0,66,0.00,,---,0.00,VWS V14.00,2013-04-22 07:03:00,
2013-04-22 03:04:00,36.7,26.4,30.33,NW,315,1.1,1.6,66,0.00,,---,0.00,VWS V14.00,2013-04-22 07:04:00,
2013-04-22 03:05:00,36.7,26.4,30.33,South,180,2.9,2.9,66,0.00,,---,0.00,VWS V14.00,2013-04-22 07:05:00,
2013-04-22 03:06:00,36.7,26.4,30.33,SSW,202,2.0,2.9,66,0.00,,---,0.00,VWS V14.00,2013-04-22 07:06:00,
2013-04-22 03:07:00,36.5,26.2,30.33,SSW,202,1.3,1.3,66,0.00,,---,0.00,VWS V14.00,2013-04-22 07:07:00,
2013-04-22 03:10:00,36.5,26.2,30.33,South,180,2.2,2.2,66,0.00,,---,0.00,VWS V14.00,2013-04-22 07:10:00,
2013-04-22 03:11:00,36.5,26.2,30.33,South,180,1.3,2.0,66,0.00,,---,0.00,VWS V14.00,2013-04-22 07:11:00,
2013-04-22 03:12:00,36.5,26.2,30.33,SSE,158,1.6,2.0,66,0.00,,---,0.00,VWS V14.00,2013-04-22 07:12:00,
2013-04-22 03:13:00,36.5,26.2,30.33,SSE,158,1.1,1.6,66,0.00,,---,0.00,VWS V14.00,2013-04-22 07:13:00,
2013-04-22 03:15:00,36.3,26.1,30.33,South,180,2.2,2.9,66,0.00,,---,0.00,VWS V14.00,2013-04-22 07:15:00,
2013-04-22 03:16:00,36.3,26.1,30.33,SSW,202,1.3,2.2,66,0.00,,---,0.00,VWS V14.00,2013-04-22 07:16:00,
2013-04-22 03:17:00,36.3,26.1,30.33,South,180,0.0,1.3,66,0.00,,---,0.00,VWS V14.00,2013-04-22 07:17:00,
2013-04-22 03:18:00,36.3,26.1,30.30,South,180,0.0,0.0,66,0.00,,---,0.00,VWS V14.00,2013-04-22 07:18:00,
2013-04-22 03:20:00,36.3,26.1,30.30,SSE,158,0.0,1.3,66,0.00,,---,0.00,VWS V14.00,2013-04-22 07:20:00,
2013-04-22 03:21:00,36.3,26.1,30.30,South,180,2.0,2.0,66,0.00,,---,0.00,VWS V14.00,2013-04-22 07:21:00,
2013-04-22 03:22:00,36.3,26.1,30.30,South,180,2.0,2.0,66,0.00,,---,0.00,VWS V14.00,2013-04-22 07:22:00,
2013-04-22 03:23:00,36.3,26.1,30.30,SE,135,1.3,2.0,66,0.00,,---,0.00,VWS V14.00,2013-04-22 07:23:00,
2013-04-22 03:27:00,36.3,26.1,30.30,SSE,158,2.9,2.9,66,0.00,,---,0.00,VWS V14.00,2013-04-22 07:27:00,
2013-04-22 03:28:00,36.3,26.1,30.30,WNW,292,2.5,3.6,66,0.00,,---,0.00,VWS V14.00,2013-04-22 07:28:00,
2013-04-22 03:29:00,36.3,26.1,30.30,SSE,158,1.1,2.0,66,0.00,,---,0.00,VWS V14.00,2013-04-22 07:29:00,
2013-04-22 03:33:00,36.3,26.1,30.30,SSE,158,3.1,3.4,66,0.00,,---,0.00,VWS V14.00,2013-04-22 07:33:00,
2013-04-22 03:34:00,36.3,26.1,30.30,SSW,202,1.6,1.6,66,0.00,,---,0.00,VWS V14.00,2013-04-22 07:34:00,
2013-04-22 03:35:00,36.3,26.1,30.30,South,180,2.9,3.8,66,0.00,,---,0.00,VWS V14.00,2013-04-22 07:35:00,
2013-04-22 03:38:00,36.1,25.9,30.30,NNW,338,1.6,1.6,66,0.00,,---,0.00,VWS V14.00,2013-04-22 07:38:00,
2013-04-22 03:39:00,36.1,25.9,30.30,NNW,338,0.0,1.6,66,0.00,,---,0.00,VWS V14.00,2013-04-22 07:39:00,
2013-04-22 03:41:00,36.1,25.9,30.30,SSE,158,0.0,1.1,66,0.00,,---,0.00,VWS V14.00,2013-04-22 07:41:00,
2013-04-22 03:43:00,36.1,25.9,30.30,South,180,4.7,4.7,66,0.00,,---,0.00,VWS V14.00,2013-04-22 07:43:00,
2013-04-22 03:44:00,36.1,25.9,30.30,South,180,1.3,4.7,66,0.00,,---,0.00,VWS V14.00,2013-04-22 07:44:00,
2013-04-22 03:45:00,36.1,25.9,30.30,SSE,158,1.3,1.3,66,0.00,,---,0.00,VWS V14.00,2013-04-22 07:45:00,
2013-04-22 03:47:00,36.1,25.9,30.30,WSW,248,1.3,1.3,66,0.00,,---,0.00,VWS V14.00,2013-04-22 07:47:00,
2013-04-22 03:49:00,36.1,25.9,30.30,WSW,248,1.1,1.3,66,0.00,,---,0.00,VWS V14.00,2013-04-22 07:49:00,
2013-04-22 03:51:00,36.1,25.9,30.30,South,180,3.4,3.4,66,0.00,,---,0.00,VWS V14.00,2013-04-22 07:51:00,
2013-04-22 03:52:00,36.1,26.3,30.30,SSE,158,0.0,0.0,67,0.00,,---,0.00,VWS V14.00,2013-04-22 07:52:00,
2013-04-22 03:54:00,36.1,26.3,30.30,SSE,158,2.5,2.5,67,0.00,,---,0.00,VWS V14.00,2013-04-22 07:54:00,
2013-04-22 03:56:00,36.1,25.9,30.30,South,180,2.5,3.6,66,0.00,,---,0.00,VWS V14.00,2013-04-22 07:56:00,
2013-04-22 03:57:00,36.0,25.7,30.30,South,180,3.1,3.1,66,0.00,,---,0.00,VWS V14.00,2013-04-22 07:57:00,
2013-04-22 04:00:00,36.0,25.7,30.30,South,180,1.3,1.3,66,0.00,,---,0.00,VWS V14.00,2013-04-22 08:00:00,
2013-04-22 04:02:00,36.0,25.7,30.30,SSW,202,1.3,1.6,66,0.00,,---,0.00,VWS V14.00,2013-04-22 08:02:00,
2013-04-22 04:05:00,36.0,26.1,30.30,South,180,2.0,2.0,67,0.00,,---,0.00,VWS V14.00,2013-04-22 08:05:00,
2013-04-22 04:06:00,36.0,26.1,30.30,NE,45,1.6,2.0,67,0.00,,---,0.00,VWS V14.00,2013-04-22 08:06:00,
2013-04-22 04:07:00,36.0,26.1,30.30,ESE,112,1.1,1.6,67,0.00,,---,0.00,VWS V14.00,2013-04-22 08:07:00,
2013-04-22 04:08:00,36.0,25.7,30.30,SSW,202,0.0,1.1,66,0.00,,---,0.00,VWS V14.00,2013-04-22 08:08:00,
2013-04-22 04:10:00,36.0,26.1,30.30,South,180,1.1,2.0,67,0.00,,---,0.00,VWS V14.00,2013-04-22 08:10:00,
2013-04-22 04:11:00,36.0,26.1,30.30,South,180,0.9,2.0,67,0.00,,---,0.00,VWS V14.00,2013-04-22 08:11:00,
2013-04-22 04:12:00,36.0,26.1,30.30,South,180,3.8,3.8,67,0.00,,---,0.00,VWS V14.00,2013-04-22 08:12:00,
2013-04-22 04:13:00,36.0,26.1,30.30,SSE,158,2.5,4.7,67,0.00,,---,0.00,VWS V14.00,2013-04-22 08:13:00,
2013-04-22 04:14:00,36.0,26.1,30.30,South,180,1.6,2.5,67,0.00,,---,0.00,VWS V14.00,2013-04-22 08:14:00,
2013-04-22 04:16:00,36.0,26.1,30.30,South,180,0.0,0.0,67,0.00,,---,0.00,VWS V14.00,2013-04-22 08:16:00,
2013-04-22 04:17:00,36.0,26.1,30.30,SSE,158,0.0,0.0,67,0.00,,---,0.00,VWS V14.00,2013-04-22 08:17:00,
2013-04-22 04:19:00,36.0,26.1,30.30,WSW,248,2.2,2.2,67,0.00,,---,0.00,VWS V14.00,2013-04-22 08:19:00,
2013-04-22 04:21:00,35.8,25.9,30.30,SSW,202,1.1,1.1,67,0.00,,---,0.00,VWS V14.00,2013-04-22 08:21:00,
2013-04-22 04:22:00,35.8,25.9,30.30,SSW,202,1.1,1.6,67,0.00,,---,0.00,VWS V14.00,2013-04-22 08:22:00,
2013-04-22 04:24:00,35.8,25.9,30.30,SSW,202,0.0,0.0,67,0.00,,---,0.00,VWS V14.00,2013-04-22 08:24:00,
2013-04-22 04:26:00,35.8,25.9,30.30,SSW,202,1.3,1.3,67,0.00,,---,0.00,VWS V14.00,2013-04-22 08:26:00,
2013-04-22 04:27:00,35.8,25.9,30.30,SSW,202,0.9,1.3,67,0.00,,---,0.00,VWS V14.00,2013-04-22 08:27:00,
2013-04-22 04:28:00,35.8,25.9,30.30,SSE,158,1.6,1.6,67,0.00,,---,0.00,VWS V14.00,2013-04-22 08:28:00,
2013-04-22 04:30:00,35.8,25.9,30.30,SW,225,0.0,0.0,67,0.00,,---,0.00,VWS V14.00,2013-04-22 08:30:00,
2013-04-22 04:31:00,35.8,25.9,30.30,South,180,0.0,0.0,67,0.00,,---,0.00,VWS V14.00,2013-04-22 08:31:00,
2013-04-22 04:32:00,35.8,25.9,30.30,South,180,2.0,2.0,67,0.00,,---,0.00,VWS V14.00,2013-04-22 08:32:00,
2013-04-22 04:34:00,35.8,25.9,30.30,SSE,158,0.0,0.0,67,0.00,,---,0.00,VWS V14.00,2013-04-22 08:34:00,
2013-04-22 04:36:00,35.8,25.9,30.30,SSE,158,0.0,0.0,67,0.00,,---,0.00,VWS V14.00,2013-04-22 08:36:00,
2013-04-22 04:37:00,35.8,25.9,30.30,SSE,158,0.0,0.0,67,0.00,,---,0.00,VWS V14.00,2013-04-22 08:37:00,
2013-04-22 04:39:00,35.6,25.7,30.30,SSE,158,0.0,0.0,67,0.00,,---,0.00,VWS V14.00,2013-04-22 08:39:00,
2013-04-22 04:41:00,35.6,25.7,30.30,SSE,158,0.0,0.0,67,0.00,,---,0.00,VWS V14.00,2013-04-22 08:41:00,
2013-04-22 04:42:00,35.6,25.7,30.30,SSE,158,0.0,0.0,67,0.00,,---,0.00,VWS V14.00,2013-04-22 08:42:00,
2013-04-22 04:43:00,35.6,25.7,30.30,SSE,158,0.0,0.0,67,0.00,,---,0.00,VWS V14.00,2013-04-22 08:43:00,
2013-04-22 04:45:00,35.6,25.7,30.30,SSE,158,0.0,0.0,67,0.00,,---,0.00,VWS V14.00,2013-04-22 08:45:00,
2013-04-22 04:47:00,35.6,25.7,30.30,SSE,158,0.0,0.0,67,0.00,,---,0.00,VWS V14.00,2013-04-22 08:47:00,
2013-04-22 04:48:00,35.4,25.9,30.27,SSE,158,0.0,0.0,68,0.00,,---,0.00,VWS V14.00,2013-04-22 08:48:00,
2013-04-22 04:49:00,35.4,25.9,30.27,SSE,158,0.0,0.0,68,0.00,,---,0.00,VWS V14.00,2013-04-22 08:49:00,
2013-04-22 04:51:00,35.4,25.9,30.27,SSE,158,0.0,0.0,68,0.00,,---,0.00,VWS V14.00,2013-04-22 08:51:00,
2013-04-22 04:52:00,35.4,25.9,30.27,SSE,158,0.0,0.0,68,0.00,,---,0.00,VWS V14.00,2013-04-22 08:52:00,
2013-04-22 04:53:00,35.4,25.9,30.27,SSE,158,0.0,0.0,68,0.00,,---,0.00,VWS V14.00,2013-04-22 08:53:00,
2013-04-22 04:55:00,35.4,25.9,30.27,SSE,158,0.0,0.0,68,0.00,,---,0.00,VWS V14.00,2013-04-22 08:55:00,
2013-04-22 04:56:00,35.4,25.9,30.27,SSE,158,0.0,0.0,68,0.00,,---,0.00,VWS V14.00,2013-04-22 08:56:00,
2013-04-22 04:58:00,35.2,25.8,30.27,SSE,158,0.0,0.0,68,0.00,,---,0.00,VWS V14.00,2013-04-22 08:58:00,
2013-04-22 05:00:00,35.2,25.8,30.27,SSE,158,0.0,0.0,68,0.00,,---,0.00,VWS V14.00,2013-04-22 09:00:00,
2013-04-22 05:01:00,35.2,25.8,30.27,SSE,158,0.0,0.0,68,0.00,,---,0.00,VWS V14.00,2013-04-22 09:01:00,
2013-04-22 05:02:00,35.2,25.8,30.27,SSE,158,0.0,0.0,68,0.00,,---,0.00,VWS V14.00,2013-04-22 09:02:00,
2013-04-22 05:03:00,35.1,25.6,30.30,SSE,158,0.0,0.0,68,0.00,,---,0.00,VWS V14.00,2013-04-22 09:03:00,
2013-04-22 05:04:00,35.1,25.6,30.30,SSE,158,0.0,0.0,68,0.00,,---,0.00,VWS V14.00,2013-04-22 09:04:00,
2013-04-22 05:05:00,35.1,25.6,30.30,SSE,158,0.0,0.0,68,0.00,,---,0.00,VWS V14.00,2013-04-22 09:05:00,
2013-04-22 05:07:00,35.1,25.6,30.30,SE,135,1.3,1.3,68,0.00,,---,0.00,VWS V14.00,2013-04-22 09:07:00,
2013-04-22 05:09:00,35.1,25.9,30.30,ENE,68,0.0,0.0,69,0.00,,---,0.00,VWS V14.00,2013-04-22 09:09:00,
2013-04-22 05:10:00,35.1,25.9,30.30,SSE,158,1.3,1.3,69,0.00,,---,0.00,VWS V14.00,2013-04-22 09:10:00,
2013-04-22 05:12:00,35.1,25.9,30.30,SSW,202,1.3,1.3,69,0.00,,---,0.00,VWS V14.00,2013-04-22 09:12:00,
2013-04-22 05:15:00,35.1,25.9,30.30,SSE,158,1.6,1.6,69,0.00,,---,0.00,VWS V14.00,2013-04-22 09:15:00,
2013-04-22 05:16:00,35.1,25.9,30.30,SSE,158,1.6,1.6,69,0.00,,---,0.00,VWS V14.00,2013-04-22 09:16:00,
2013-04-22 05:17:00,35.1,25.9,30.30,SSE,158,0.0,0.0,69,0.00,,---,0.00,VWS V14.00,2013-04-22 09:17:00,
2013-04-22 05:21:00,35.1,25.9,30.30,South,180,1.6,2.2,69,0.00,,---,0.00,VWS V14.00,2013-04-22 09:21:00,
2013-04-22 05:23:00,35.1,25.9,30.30,SSE,158,0.9,1.3,69,0.00,,---,0.00,VWS V14.00,2013-04-22 09:23:00,
2013-04-22 05:26:00,35.1,25.9,30.30,SSW,202,0.0,1.6,69,0.00,,---,0.00,VWS V14.00,2013-04-22 09:26:00,
2013-04-22 05:27:00,35.1,25.9,30.30,SSW,202,0.0,0.0,69,0.00,,---,0.00,VWS V14.00,2013-04-22 09:27:00,
2013-04-22 05:28:00,35.1,25.9,30.30,SSW,202,0.0,0.0,69,0.00,,---,0.00,VWS V14.00,2013-04-22 09:28:00,
2013-04-22 05:31:00,34.9,25.8,30.30,SSW,202,0.0,0.0,69,0.00,,---,0.00,VWS V14.00,2013-04-22 09:31:00,
2013-04-22 05:32:00,34.9,25.8,30.30,SSW,202,0.0,0.0,69,0.00,,---,0.00,VWS V14.00,2013-04-22 09:32:00,
2013-04-22 05:33:00,34.9,25.8,30.30,SSW,202,0.0,0.0,69,0.00,,---,0.00,VWS V14.00,2013-04-22 09:33:00,
2013-04-22 05:37:00,34.9,25.8,30.30,SSW,202,1.1,1.1,69,0.00,,---,0.00,VWS V14.00,2013-04-22 09:37:00,
2013-04-22 05:38:00,34.9,26.1,30.30,SSW,202,0.0,0.0,70,0.00,,---,0.00,VWS V14.00,2013-04-22 09:38:00,
2013-04-22 05:39:00,34.9,26.1,30.30,SSW,202,0.0,0.0,70,0.00,,---,0.00,VWS V14.00,2013-04-22 09:39:00,
2013-04-22 05:41:00,34.9,26.1,30.30,SSW,202,0.0,0.0,70,0.00,,---,0.00,VWS V14.00,2013-04-22 09:41:00,
2013-04-22 05:43:00,34.9,26.1,30.30,SSW,202,0.0,0.0,70,0.00,,---,0.00,VWS V14.00,2013-04-22 09:43:00,
2013-04-22 05:44:00,34.7,25.9,30.30,SSW,202,0.0,0.0,70,0.00,,---,0.00,VWS V14.00,2013-04-22 09:44:00,
2013-04-22 05:45:00,34.7,25.9,30.30,SSW,202,0.0,0.0,70,0.00,,---,0.00,VWS V14.00,2013-04-22 09:45:00,
2013-04-22 05:46:00,34.7,25.9,30.30,SSW,202,0.0,0.0,70,0.00,,---,0.00,VWS V14.00,2013-04-22 09:46:00,
2013-04-22 05:48:00,34.7,25.9,30.30,SSW,202,0.0,0.0,70,0.00,,---,0.00,VWS V14.00,2013-04-22 09:48:00,
2013-04-22 05:49:00,34.7,25.9,30.30,SSE,158,0.0,0.0,70,0.00,,---,0.00,VWS V14.00,2013-04-22 09:49:00,
2013-04-22 05:50:00,34.7,25.9,30.30,SSE,158,0.0,0.0,70,0.00,,---,0.00,VWS V14.00,2013-04-22 09:50:00,
2013-04-22 05:52:00,34.7,25.9,30.30,SE,135,0.0,0.0,70,0.00,,---,0.00,VWS V14.00,2013-04-22 09:52:00,
2013-04-22 05:53:00,34.7,25.9,30.30,SE,135,0.0,0.0,70,0.00,,---,0.00,VWS V14.00,2013-04-22 09:53:00,
2013-04-22 05:54:00,34.5,25.8,30.30,SSE,158,1.1,1.1,70,0.00,,---,0.00,VWS V14.00,2013-04-22 09:54:00,
2013-04-22 05:55:00,34.5,25.8,30.30,SSE,158,0.0,0.0,70,0.00,,---,0.00,VWS V14.00,2013-04-22 09:55:00,
2013-04-22 05:58:00,34.5,25.8,30.30,SSE,158,0.0,0.0,70,0.00,,---,0.00,VWS V14.00,2013-04-22 09:58:00,
2013-04-22 05:59:00,34.5,25.8,30.30,SSE,158,0.0,0.0,70,0.00,,---,0.00,VWS V14.00,2013-04-22 09:59:00,
2013-04-22 06:00:00,34.5,25.8,30.30,SSE,158,0.0,0.0,70,0.00,,---,0.00,VWS V14.00,2013-04-22 10:00:00,
2013-04-22 06:01:00,34.5,25.8,30.30,SSE,158,0.0,0.0,70,0.00,,---,0.00,VWS V14.00,2013-04-22 10:01:00,
2013-04-22 06:03:00,34.5,25.8,30.30,SSE,158,1.3,2.0,70,0.00,,---,0.00,VWS V14.00,2013-04-22 10:03:00,
2013-04-22 06:04:00,34.5,25.8,30.30,SSE,158,0.0,0.0,70,0.00,,---,0.00,VWS V14.00,2013-04-22 10:04:00,
2013-04-22 06:06:00,34.5,25.8,30.30,SSE,158,0.0,0.0,70,0.00,,---,0.00,VWS V14.00,2013-04-22 10:06:00,
2013-04-22 06:07:00,34.5,26.1,30.30,SE,135,0.0,0.0,71,0.00,,---,0.00,VWS V14.00,2013-04-22 10:07:00,
2013-04-22 06:09:00,34.5,26.1,30.30,SE,135,0.0,0.0,71,0.00,,---,0.00,VWS V14.00,2013-04-22 10:09:00,
2013-04-22 06:10:00,34.5,26.1,30.30,SE,135,0.0,0.0,71,0.00,,---,0.00,VWS V14.00,2013-04-22 10:10:00,
2013-04-22 06:11:00,34.5,26.1,30.30,SSE,158,1.3,1.3,71,0.00,,---,0.00,VWS V14.00,2013-04-22 10:11:00,
2013-04-22 06:13:00,34.5,26.1,30.30,SSE,158,0.0,0.0,71,0.00,,---,0.00,VWS V14.00,2013-04-22 10:13:00,
2013-04-22 06:14:00,34.5,26.1,30.30,SSW,202,1.6,1.6,71,0.00,,---,0.00,VWS V14.00,2013-04-22 10:14:00,
2013-04-22 06:15:00,34.5,26.1,30.30,South,180,0.0,1.1,71,0.00,,---,0.00,VWS V14.00,2013-04-22 10:15:00,
2013-04-22 06:17:00,34.5,26.1,30.30,ESE,112,0.0,0.0,71,0.00,,---,0.00,VWS V14.00,2013-04-22 10:17:00,
2013-04-22 06:18:00,34.5,26.1,30.30,ESE,112,0.0,0.0,71,0.00,,---,0.00,VWS V14.00,2013-04-22 10:18:00,
2013-04-22 06:19:00,34.5,26.1,30.30,SE,135,1.1,1.3,71,0.00,,---,0.00,VWS V14.00,2013-04-22 10:19:00,
2013-04-22 06:22:00,34.5,26.1,30.30,SE,135,0.0,0.0,71,0.00,,---,0.00,VWS V14.00,2013-04-22 10:22:00,
2013-04-22 06:23:00,34.5,26.1,30.30,SE,135,0.0,0.0,71,0.00,,---,0.00,VWS V14.00,2013-04-22 10:23:00,
2013-04-22 06:24:00,34.5,26.1,30.30,SE,135,0.0,0.0,71,0.00,,---,0.00,VWS V14.00,2013-04-22 10:24:00,
2013-04-22 06:25:00,34.5,26.1,30.30,SE,135,0.0,0.0,71,0.00,,---,0.00,VWS V14.00,2013-04-22 10:25:00,
2013-04-22 06:28:00,34.5,26.1,30.30,SE,135,0.0,0.0,71,0.00,,---,0.00,VWS V14.00,2013-04-22 10:28:00,
2013-04-22 06:29:00,34.5,26.1,30.30,SE,135,0.0,0.0,71,0.00,,---,0.00,VWS V14.00,2013-04-22 10:29:00,
2013-04-22 06:30:00,34.5,26.1,30.30,SE,135,0.0,0.0,71,0.00,,---,0.00,VWS V14.00,2013-04-22 10:30:00,
2013-04-22 06:33:00,34.3,25.9,30.30,SE,135,0.0,0.0,71,0.00,,---,0.00,VWS V14.00,2013-04-22 10:33:00,
2013-04-22 06:35:00,34.3,25.9,30.30,SE,135,0.0,0.0,71,0.00,,---,0.00,VWS V14.00,2013-04-22 10:35:00,
2013-04-22 06:36:00,34.3,26.3,30.30,SE,135,0.0,0.0,72,0.00,,---,0.00,VWS V14.00,2013-04-22 10:36:00,
2013-04-22 06:37:00,34.3,25.9,30.30,SE,135,0.0,0.0,71,0.00,,---,0.00,VWS V14.00,2013-04-22 10:37:00,
2013-04-22 06:40:00,34.3,26.3,30.30,SE,135,0.0,0.0,72,0.00,,---,0.00,VWS V14.00,2013-04-22 10:40:00,
2013-04-22 06:42:00,34.3,26.3,30.30,SE,135,0.0,0.0,72,0.00,,---,0.00,VWS V14.00,2013-04-22 10:42:00,
2013-04-22 06:44:00,34.3,26.3,30.30,SE,135,0.0,0.0,72,0.00,,---,0.00,VWS V14.00,2013-04-22 10:44:00,
2013-04-22 06:45:00,34.3,26.3,30.30,SE,135,0.0,0.0,72,0.00,,---,0.00,VWS V14.00,2013-04-22 10:45:00,
2013-04-22 06:46:00,34.3,26.3,30.30,SE,135,0.0,0.0,72,0.00,,---,0.00,VWS V14.00,2013-04-22 10:46:00,
2013-04-22 06:47:00,34.3,26.3,30.30,SE,135,0.0,0.0,72,0.00,,---,0.00,VWS V14.00,2013-04-22 10:47:00,
2013-04-22 06:49:00,34.3,26.3,30.30,SE,135,0.0,0.0,72,0.00,,---,0.00,VWS V14.00,2013-04-22 10:49:00,
2013-04-22 06:50:00,34.3,26.3,30.30,SE,135,0.0,0.0,72,0.00,,---,0.00,VWS V14.00,2013-04-22 10:50:00,
2013-04-22 06:52:00,34.3,26.3,30.30,SE,135,0.0,0.0,72,0.00,,---,0.00,VWS V14.00,2013-04-22 10:52:00,
2013-04-22 06:53:00,34.2,26.1,30.30,SE,135,0.0,0.0,72,0.00,,---,0.00,VWS V14.00,2013-04-22 10:53:00,
2013-04-22 06:55:00,34.2,26.1,30.30,SE,135,0.0,0.0,72,0.00,,---,0.00,VWS V14.00,2013-04-22 10:55:00,
2013-04-22 06:56:00,34.2,26.1,30.30,SE,135,0.0,0.0,72,0.00,,---,0.00,VWS V14.00,2013-04-22 10:56:00,
2013-04-22 06:57:00,34.2,26.1,30.30,SE,135,0.0,0.0,72,0.00,,---,0.00,VWS V14.00,2013-04-22 10:57:00,
2013-04-22 07:00:00,34.2,26.1,30.30,SE,135,0.0,0.0,72,0.00,,---,0.00,VWS V14.00,2013-04-22 11:00:00,
2013-04-22 07:01:00,34.2,26.1,30.30,SE,135,0.0,0.0,72,0.00,,---,0.00,VWS V14.00,2013-04-22 11:01:00,
2013-04-22 07:02:00,34.2,26.1,30.30,SE,135,0.0,0.0,72,0.00,,---,0.00,VWS V14.00,2013-04-22 11:02:00,
2013-04-22 07:04:00,34.2,26.1,30.30,SE,135,0.0,0.0,72,0.00,,---,0.00,VWS V14.00,2013-04-22 11:04:00,
2013-04-22 07:06:00,34.2,26.1,30.30,SE,135,0.0,0.0,72,0.00,,---,0.00,VWS V14.00,2013-04-22 11:06:00,
2013-04-22 07:07:00,34.3,26.3,30.30,SE,135,0.0,0.0,72,0.00,,---,0.00,VWS V14.00,2013-04-22 11:07:00,
2013-04-22 07:08:00,34.3,26.3,30.30,SE,135,0.0,0.0,72,0.00,,---,0.00,VWS V14.00,2013-04-22 11:08:00,
2013-04-22 07:09:00,34.3,26.6,30.30,SE,135,0.0,0.0,73,0.00,,---,0.00,VWS V14.00,2013-04-22 11:09:00,
2013-04-22 07:11:00,34.2,26.1,30.30,SE,135,0.0,0.0,72,0.00,,---,0.00,VWS V14.00,2013-04-22 11:11:00,
2013-04-22 07:12:00,34.3,26.3,30.30,SE,135,0.0,0.0,72,0.00,,---,0.00,VWS V14.00,2013-04-22 11:12:00,
2013-04-22 07:13:00,34.3,26.3,30.30,SE,135,0.0,0.0,72,0.00,,---,0.00,VWS V14.00,2013-04-22 11:13:00,
2013-04-22 07:14:00,34.3,26.3,30.30,SE,135,0.0,0.0,72,0.00,,---,0.00,VWS V14.00,2013-04-22 11:14:00,
2013-04-22 07:16:00,34.3,26.3,30.30,SE,135,0.0,0.0,72,0.00,,---,0.00,VWS V14.00,2013-04-22 11:16:00,
2013-04-22 07:18:00,34.3,26.3,30.30,SE,135,0.0,0.0,72,0.00,,---,0.00,VWS V14.00,2013-04-22 11:18:00,
2013-04-22 07:19:00,34.3,26.6,30.30,SE,135,0.0,0.0,73,0.00,,---,0.00,VWS V14.00,2013-04-22 11:19:00,
2013-04-22 07:20:00,34.3,26.6,30.30,SE,135,0.0,0.0,73,0.00,,---,0.00,VWS V14.00,2013-04-22 11:20:00,
2013-04-22 07:22:00,34.3,26.6,30.30,SE,135,0.0,0.0,73,0.00,,---,0.00,VWS V14.00,2013-04-22 11:22:00,
2013-04-22 07:23:00,34.3,26.6,30.30,SE,135,0.0,0.0,73,0.00,,---,0.00,VWS V14.00,2013-04-22 11:23:00,
2013-04-22 07:24:00,34.3,26.6,30.30,SE,135,0.0,0.0,73,0.00,,---,0.00,VWS V14.00,2013-04-22 11:24:00,
2013-04-22 07:25:00,34.3,26.6,30.30,SE,135,0.0,0.0,73,0.00,,---,0.00,VWS V14.00,2013-04-22 11:25:00,
2013-04-22 07:26:00,34.3,26.6,30.30,SE,135,0.0,0.0,73,0.00,,---,0.00,VWS V14.00,2013-04-22 11:26:00,
2013-04-22 07:28:00,34.5,26.8,30.30,SE,135,0.0,0.0,73,0.00,,---,0.00,VWS V14.00,2013-04-22 11:28:00,
2013-04-22 07:29:00,34.5,26.8,30.30,SE,135,0.0,0.0,73,0.00,,---,0.00,VWS V14.00,2013-04-22 11:29:00,
2013-04-22 07:30:00,34.5,26.8,30.30,SE,135,0.0,0.0,73,0.00,,---,0.00,VWS V14.00,2013-04-22 11:30:00,
2013-04-22 07:31:00,34.7,27.0,30.30,SE,135,0.0,0.0,73,0.00,,---,0.00,VWS V14.00,2013-04-22 11:31:00,
2013-04-22 07:34:00,34.9,27.1,30.30,SE,135,0.0,0.0,73,0.00,,---,0.00,VWS V14.00,2013-04-22 11:34:00,
2013-04-22 07:35:00,35.1,27.6,30.30,SE,135,0.0,0.0,74,0.00,,---,0.00,VWS V14.00,2013-04-22 11:35:00,
2013-04-22 07:36:00,35.1,27.6,30.30,SE,135,0.0,0.0,74,0.00,,---,0.00,VWS V14.00,2013-04-22 11:36:00,
2013-04-22 07:39:00,35.6,27.8,30.30,SE,135,0.0,0.0,73,0.00,,---,0.00,VWS V14.00,2013-04-22 11:39:00,
2013-04-22 07:40:00,35.6,27.8,30.30,SE,135,0.0,0.0,73,0.00,,---,0.00,VWS V14.00,2013-04-22 11:40:00,
2013-04-22 07:41:00,35.6,27.8,30.30,SE,135,0.0,0.0,73,0.00,,---,0.00,VWS V14.00,2013-04-22 11:41:00,
2013-04-22 07:42:00,35.6,27.8,30.30,SE,135,0.0,0.0,73,0.00,,---,0.00,VWS V14.00,2013-04-22 11:42:00,
2013-04-22 07:45:00,35.8,28.0,30.30,SE,135,0.0,0.0,73,0.00,,---,0.00,VWS V14.00,2013-04-22 11:45:00,
2013-04-22 07:47:00,36.0,28.2,30.30,SE,135,0.0,0.0,73,0.00,,---,0.00,VWS V14.00,2013-04-22 11:47:00,
2013-04-22 07:50:00,36.1,28.3,30.27,SSW,202,0.0,0.0,73,0.00,,---,0.00,VWS V14.00,2013-04-22 11:50:00,
2013-04-22 07:52:00,36.3,28.5,30.27,South,180,2.0,2.0,73,0.00,,---,0.00,VWS V14.00,2013-04-22 11:52:00,
2013-04-22 07:53:00,36.3,28.5,30.27,South,180,1.3,2.7,73,0.00,,---,0.00,VWS V14.00,2013-04-22 11:53:00,
2013-04-22 07:56:00,36.7,28.9,30.27,South,180,2.7,3.4,73,0.00,,---,0.00,VWS V14.00,2013-04-22 11:56:00,
2013-04-22 07:57:00,36.9,29.0,30.27,South,180,2.7,2.7,73,0.00,,---,0.00,VWS V14.00,2013-04-22 11:57:00,
2013-04-22 07:58:00,37.2,29.4,30.27,South,180,1.3,2.5,73,0.00,,---,0.00,VWS V14.00,2013-04-22 11:58:00,
2013-04-22 08:02:00,37.9,29.7,30.27,SSW,202,0.0,1.1,72,0.00,,---,0.00,VWS V14.00,2013-04-22 12:02:00,
2013-04-22 08:03:00,38.1,29.9,30.30,SSW,202,0.0,0.0,72,0.00,,---,0.00,VWS V14.00,2013-04-22 12:03:00,
2013-04-22 08:04:00,38.1,29.9,30.30,SSE,158,0.9,1.1,72,0.00,,---,0.00,VWS V14.00,2013-04-22 12:04:00,
2013-04-22 08:05:00,38.1,29.9,30.30,SSE,158,1.1,1.1,72,0.00,,---,0.00,VWS V14.00,2013-04-22 12:05:00,
2013-04-22 08:08:00,38.7,30.1,30.30,NNE,22,1.3,1.3,71,0.00,,---,0.00,VWS V14.00,2013-04-22 12:08:00,
2013-04-22 08:09:00,38.7,30.1,30.30,SSE,158,2.5,2.5,71,0.00,,---,0.00,VWS V14.00,2013-04-22 12:09:00,
2013-04-22 08:11:00,38.8,30.3,30.30,SSW,202,2.0,2.7,71,0.00,,---,0.00,VWS V14.00,2013-04-22 12:11:00,
2013-04-22 08:13:00,39.2,30.2,30.30,SSE,158,1.3,1.6,70,0.00,,---,0.00,VWS V14.00,2013-04-22 12:13:00,
2013-04-22 08:14:00,39.2,30.2,30.30,SW,225,2.7,2.7,70,0.00,,---,0.00,VWS V14.00,2013-04-22 12:14:00,
2013-04-22 08:15:00,39.6,30.6,30.30,South,180,2.2,4.0,70,0.00,,---,0.00,VWS V14.00,2013-04-22 12:15:00,
2013-04-22 08:16:00,39.7,30.8,30.30,South,180,1.3,2.2,70,0.00,,---,0.00,VWS V14.00,2013-04-22 12:16:00,
2013-04-22 08:19:00,40.1,30.8,30.30,East,90,2.9,2.9,69,0.00,,---,0.00,VWS V14.00,2013-04-22 12:19:00,
2013-04-22 08:20:00,40.1,30.8,30.30,SE,135,0.0,2.9,69,0.00,,---,0.00,VWS V14.00,2013-04-22 12:20:00,
2013-04-22 08:21:00,40.3,30.9,30.30,SW,225,1.1,1.3,69,0.00,,---,0.00,VWS V14.00,2013-04-22 12:21:00,
2013-04-22 08:25:00,40.5,30.8,30.30,South,180,2.0,2.0,68,0.00,,---,0.00,VWS V14.00,2013-04-22 12:25:00,
2013-04-22 08:26:00,40.6,30.9,30.30,SSW,202,1.6,2.0,68,0.00,,---,0.00,VWS V14.00,2013-04-22 12:26:00,
2013-04-22 08:27:00,40.8,30.7,30.30,SSW,202,1.6,2.0,67,0.00,,---,0.00,VWS V14.00,2013-04-22 12:27:00,
2013-04-22 08:30:00,41.2,30.7,30.30,North,0,2.2,2.7,66,0.00,,---,0.00,VWS V14.00,2013-04-22 12:30:00,
2013-04-22 08:31:00,41.2,30.7,30.30,SSE,158,1.1,1.6,66,0.00,,---,0.00,VWS V14.00,2013-04-22 12:31:00,
2013-04-22 08:32:00,41.4,30.9,30.30,East,90,3.4,3.8,66,0.00,,---,0.00,VWS V14.00,2013-04-22 12:32:00,
2013-04-22 08:35:00,41.7,30.8,30.30,SSE,158,2.7,2.7,65,0.00,,---,0.00,VWS V14.00,2013-04-22 12:35:00,
2013-04-22 08:36:00,41.7,30.8,30.30,South,180,2.2,2.7,65,0.00,,---,0.00,VWS V14.00,2013-04-22 12:36:00,